User: anonymous   Login
Location: Unspecified
(0.0000°N, 0.0000°E)
Time: 21:25:33
(UTC+00:00)
Language:

NTS 1 - Orbit

View from above orbital plane
View from above orbital plane
View from above satellite
View from above satellite

Ground track
Ground track

The orbit data is extracted from the following two-line orbital elements,

1 07369U 74054A   18049.28274049  .00000065  00000-0  00000+0 0  9993
2 07369 125.0075 280.1049 0074649 256.0477 189.2400  3.07214347489266
Epoch (UTC): 18 February 2018 06:47:08
Eccentricity: 0.0074649
inclination: 125.0075°
perigee height: 13461 km
apogee height: 13759 km
right ascension of ascending node: 280.1049°
argument of perigee: 256.0477°
revolutions per day: 3.07214347
mean anomaly at epoch: 189.2400°
orbit number at epoch: 48926

The dashed part of the orbit path shows where the satellite is in the earth's shadow,  

DLR